This is the latest recevied weather packets stored in our database for station/object K1ABC. If no packets are shown the sender has not sent any weather packets the latest 10 day(s).
| Time | Temp. | Humidity | Pressure | Rain* | Wind** | Luminosity | Snow |
|---|---|---|---|---|---|---|---|
| 1777927558 | 22.78° C | 29% | 1005.3 hPa | 0 mm | - | - | - |
| 1777926370 | 22.78° C | 29% | 1005.3 hPa | 0 mm | - | - | - |
| 1777926049 | 22.78° C | 28% | 1005.3 hPa | 0 mm | - | - | - |
| 1777923469 | 23.33° C | 27% | 1005.4 hPa | 0 mm | - | - | - |
| 1777923142 | 23.33° C | 29% | 1005.3 hPa | 0 mm | - | - | - |
| 1777922450 | 22.78° C | 28% | 1005.4 hPa | 0 mm | - | - | - |
| 1777922245 | 22.22° C | 28% | 1005.5 hPa | 0 mm | - | - | - |
| 1777921416 | 22.78° C | 28% | 1005.7 hPa | 0 mm | - | - | - |
| 1777921218 | 22.22° C | 32% | 1005.7 hPa | 0 mm | - | - | - |
| 1777920279 | 21.11° C | 31% | 1005.7 hPa | 0 mm | - | - | - |
| 1777916610 | 22.22° C | 29% | 1006.2 hPa | 0 mm | - | - | - |
| 1777916293 | 22.22° C | 29% | 1006.1 hPa | 0 mm | - | - | - |
| 1777915703 | 21.67° C | 30% | 1006.1 hPa | 0 mm | - | - | - |
| 1777914233 | 21.11° C | 32% | 1006.4 hPa | 0 mm | - | - | - |
| 1777914031 | 21.11° C | 31% | 1006.4 hPa | 0 mm | - | - | - |
| 1777913834 | 21.11° C | 31% | 1006.5 hPa | 0 mm | - | - | - |
| 1777913632 | 21.11° C | 31% | 1006.5 hPa | 0 mm | - | - | - |
| 1777913315 | 21.11° C | 32% | 1006.4 hPa | 0 mm | - | - | - |
| 1777912732 | 21.11° C | 32% | 1006.4 hPa | 0 mm | - | - | - |
| 1777912410 | 21.11° C | 33% | 1006.4 hPa | 0 mm | - | - | - |
| 1777911712 | 20.56° C | 33% | 1006.4 hPa | 0 mm | - | - | - |
| 1777909756 | 20.56° C | 34% | 1007 hPa | 0 mm | - | - | - |
| 1777909558 | 20° C | 35% | 1006.9 hPa | 0 mm | - | - | - |
| 1777908730 | 20° C | 36% | 1007.1 hPa | 0 mm | - | - | - |
| 1777907918 | 19.44° C | 38% | 1007.3 hPa | 0 mm | - | - | - |
* Rain latest hour (hover to see other rain measurements)
** Current wind speed in m/s (hover to see current wind gust speed)